Darstellungsparameter: Aktuell verwendete Einstellungen:
Skalierung der Graphiken ... ?
xyx+y,   Skalierungsfaktor:      Skalierung: Modus: x, Faktor: 1
Darstellungszeitraum ... ?
Vom - - bis: - -   Zeitraum: 08.12.2020 - 08.12.2020
Min/Max/Avg-Anzeige ... ?
Zeige MMA aktuell
Zeige MMA Monat
Zeige MMA alles
Zeige --A aktuell
Zeige --A Monat
Zeige --A alles
Keine MMA-Anzeige
MMA:
Average (ber die Originaldaten)
MMA-Basis: 08.12.2020 - 08.12.2020
Quicknavigation für Darstellung... ?
Tage:      1T, 2T, 3T, 5T -1T -2T -3T -5T +1T +2T +3T +5T
Wochen: 1W, 2W, 3W -1W -2W -3W +1W +2W +3W
Monate: 1M, 3M, 6M -1M -3M -6M +1M +3M +6M
Jahre:    1J, 3J, 5J, 10J -1J -3J -5J -10J +1J +3J +5J +10J
Nutze für die Darstellung ... ?
Originaldaten oder Mittelwerte auf ...
Stundenbasis Tagesbasis Wochenbasis
Monatsbasis Jahresbasis      Datenbasis: Original-Daten
Darstellen als:
Statistik (Auto) Statistik J:M      Darstellung:
Zur Graphik,    zurück zur Übersicht aller Sensoren.
 
Tabellarische Datenbersicht: ?
 
Sensor: Nr:Datum:Temp:Abs-Feuchte:Windchill:Wind:
Aussen-T/F 1 08-12-2020 00:00:00 3 C 5.71 g/m*3 3 C 0 km/h
2 08-12-2020 00:05:00 3 C 5.71 g/m*3 3 C 0 km/h
3 08-12-2020 00:10:00 3 C 5.71 g/m*3 3 C 0 km/h
4 08-12-2020 00:15:00 3.1 C 5.75 g/m*3 3.1 C 0 km/h
5 08-12-2020 00:20:00 3.1 C 5.75 g/m*3 3.1 C 0 km/h
6 08-12-2020 00:25:00 3.1 C 5.75 g/m*3 3.1 C 0 km/h
7 08-12-2020 00:30:00 3.1 C 5.75 g/m*3 3.1 C 0 km/h
8 08-12-2020 00:35:00 3.1 C 5.75 g/m*3 3.1 C 0 km/h
9 08-12-2020 00:40:00 3.1 C 5.75 g/m*3 3.1 C 0 km/h
10 08-12-2020 00:45:00 3.1 C 5.75 g/m*3 3.1 C 0 km/h
11 08-12-2020 00:50:00 3.1 C 5.75 g/m*3 3.1 C 0 km/h
12 08-12-2020 00:55:00 3.1 C 5.75 g/m*3 3.1 C 0 km/h
13 08-12-2020 01:00:00 3.1 C 5.75 g/m*3 3.1 C 0 km/h
14 08-12-2020 01:05:00 3.1 C 5.75 g/m*3 3.1 C 0 km/h
15 08-12-2020 01:10:00 3.1 C 5.75 g/m*3 3.1 C 0 km/h
16 08-12-2020 01:15:00 3.2 C 5.79 g/m*3 3.2 C 0 km/h
17 08-12-2020 01:20:00 3.1 C 5.75 g/m*3 3.1 C 0 km/h
18 08-12-2020 01:25:00 3.1 C 5.75 g/m*3 3.1 C 0 km/h
19 08-12-2020 01:30:00 3.1 C 5.75 g/m*3 3.1 C 0 km/h
20 08-12-2020 01:35:00 3.1 C 5.75 g/m*3 3.1 C 0 km/h
21 08-12-2020 01:40:00 3.1 C 5.75 g/m*3 3.1 C 0 km/h
22 08-12-2020 01:45:00 3.1 C 5.75 g/m*3 3.1 C 0 km/h
23 08-12-2020 01:50:00 3.1 C 5.75 g/m*3 3.1 C 0 km/h
24 08-12-2020 01:55:00 3.1 C 5.75 g/m*3 3.1 C 0 km/h
25 08-12-2020 02:00:00 3.1 C 5.75 g/m*3 3.1 C 0 km/h
Sensor: Nr:Datum:Temp:Abs-Feuchte:Windchill:Wind:
Aussen-T/F 26 08-12-2020 02:05:00 3.1 C 5.75 g/m*3 3.1 C 0 km/h
27 08-12-2020 02:10:00 3.1 C 5.75 g/m*3 3.1 C 0 km/h
28 08-12-2020 02:15:00 3.1 C 5.75 g/m*3 3.1 C 0 km/h
29 08-12-2020 02:20:00 3.1 C 5.75 g/m*3 3.1 C 0 km/h
30 08-12-2020 02:25:00 3.1 C 5.81 g/m*3 3.1 C 0 km/h
31 08-12-2020 02:30:00 3.1 C 5.75 g/m*3 3.1 C 0 km/h
32 08-12-2020 02:35:00 3 C 5.71 g/m*3 3 C 0 km/h
33 08-12-2020 02:40:00 2.9 C 5.67 g/m*3 2.9 C 0 km/h
34 08-12-2020 02:45:00 2.9 C 5.67 g/m*3 2.9 C 0 km/h
35 08-12-2020 02:50:00 2.8 C 5.63 g/m*3 2.8 C 0 km/h
36 08-12-2020 02:55:00 2.8 C 5.63 g/m*3 2.8 C 0 km/h
37 08-12-2020 03:00:00 2.9 C 5.67 g/m*3 2.9 C 0 km/h
38 08-12-2020 03:05:00 2.9 C 5.67 g/m*3 2.9 C 0 km/h
39 08-12-2020 03:10:00 2.9 C 5.67 g/m*3 2.9 C 1.6 km/h
40 08-12-2020 03:15:00 2.9 C 5.67 g/m*3 2.9 C 1.6 km/h
41 08-12-2020 03:20:00 2.8 C 5.63 g/m*3 2.8 C 0 km/h
42 08-12-2020 03:25:00 2.8 C 5.63 g/m*3 2.8 C 0 km/h
43 08-12-2020 03:30:00 2.8 C 5.69 g/m*3 2.8 C 0 km/h
44 08-12-2020 03:35:00 2.8 C 5.69 g/m*3 2.8 C 0 km/h
45 08-12-2020 03:40:00 2.9 C 5.73 g/m*3 2.9 C 0 km/h
46 08-12-2020 03:45:00 2.9 C 5.73 g/m*3 2.9 C 0 km/h
47 08-12-2020 03:50:00 2.9 C 5.73 g/m*3 2.9 C 0 km/h
48 08-12-2020 03:55:00 3 C 5.77 g/m*3 3 C 0 km/h
49 08-12-2020 04:00:00 3.1 C 5.81 g/m*3 3.1 C 0 km/h
50 08-12-2020 04:05:00 3.1 C 5.81 g/m*3 3.1 C 0 km/h
Sensor: Nr:Datum:Temp:Abs-Feuchte:Windchill:Wind:
Aussen-T/F 51 08-12-2020 04:10:00 3.2 C 5.85 g/m*3 3.2 C 0 km/h
52 08-12-2020 04:15:00 3.2 C 5.85 g/m*3 3.2 C 0 km/h
53 08-12-2020 04:20:00 3.2 C 5.85 g/m*3 3.2 C 0 km/h
54 08-12-2020 04:25:00 3.2 C 5.85 g/m*3 3.2 C 0 km/h
55 08-12-2020 04:30:00 3.2 C 5.85 g/m*3 3.2 C 0 km/h
56 08-12-2020 04:35:00 3.3 C 5.88 g/m*3 3.3 C 0 km/h
57 08-12-2020 04:40:00 3.3 C 5.88 g/m*3 3.3 C 0 km/h
58 08-12-2020 04:45:00 3.3 C 5.88 g/m*3 3.3 C 0 km/h
59 08-12-2020 04:50:00 3.3 C 5.88 g/m*3 3.3 C 0 km/h
60 08-12-2020 04:55:00 3.3 C 5.88 g/m*3 3.3 C 0 km/h
61 08-12-2020 05:00:00 3.3 C 5.88 g/m*3 3.3 C 0 km/h
62 08-12-2020 05:05:00 3.2 C 5.85 g/m*3 3.2 C 1.6 km/h
63 08-12-2020 05:10:00 3.2 C 5.79 g/m*3 3.2 C 1.6 km/h
64 08-12-2020 05:15:00 3.1 C 5.75 g/m*3 3.1 C 4.8 km/h
65 08-12-2020 05:20:00 3.1 C 5.75 g/m*3 3.1 C 0 km/h
66 08-12-2020 05:25:00 3.1 C 5.75 g/m*3 3.1 C 0 km/h
67 08-12-2020 05:30:00 3.1 C 5.75 g/m*3 3.1 C 0 km/h
68 08-12-2020 05:35:00 3.1 C 5.75 g/m*3 3.1 C 0 km/h
69 08-12-2020 05:40:00 3.1 C 5.75 g/m*3 3.1 C 0 km/h
70 08-12-2020 05:45:00 3.1 C 5.75 g/m*3 3.1 C 1.6 km/h
71 08-12-2020 05:50:00 3 C 5.71 g/m*3 3 C 0 km/h
72 08-12-2020 05:55:00 3 C 5.71 g/m*3 3 C 0 km/h
73 08-12-2020 06:00:00 3 C 5.71 g/m*3 3 C 0 km/h
74 08-12-2020 06:05:00 3 C 5.71 g/m*3 3 C 0 km/h
75 08-12-2020 06:10:00 3 C 5.71 g/m*3 3 C 0 km/h
Sensor: Nr:Datum:Temp:Abs-Feuchte:Windchill:Wind:
Aussen-T/F 76 08-12-2020 06:15:00 3 C 5.71 g/m*3 3 C 0 km/h
77 08-12-2020 06:20:00 2.9 C 5.67 g/m*3 2.9 C 0 km/h
78 08-12-2020 06:25:00 2.9 C 5.67 g/m*3 2.9 C 0 km/h
79 08-12-2020 06:30:00 2.9 C 5.67 g/m*3 2.9 C 3.2 km/h
80 08-12-2020 06:35:00 2.9 C 5.67 g/m*3 2.9 C 0 km/h
81 08-12-2020 06:40:00 2.9 C 5.67 g/m*3 2.9 C 0 km/h
82 08-12-2020 06:45:00 2.9 C 5.67 g/m*3 2.9 C 1.6 km/h
83 08-12-2020 06:50:00 2.9 C 5.61 g/m*3 2.9 C 0 km/h
84 08-12-2020 06:55:00 2.9 C 5.61 g/m*3 2.9 C 3.2 km/h
85 08-12-2020 07:00:00 2.9 C 5.61 g/m*3 2.9 C 0 km/h
86 08-12-2020 07:05:00 2.9 C 5.61 g/m*3 2.9 C 0 km/h
87 08-12-2020 07:10:00 2.9 C 5.61 g/m*3 2.9 C 0 km/h
88 08-12-2020 07:15:00 2.9 C 5.61 g/m*3 2.9 C 0 km/h
89 08-12-2020 07:20:00 2.9 C 5.61 g/m*3 2.9 C 0 km/h
90 08-12-2020 07:25:00 2.9 C 5.61 g/m*3 2.9 C 0 km/h
91 08-12-2020 07:30:00 2.9 C 5.61 g/m*3 2.9 C 0 km/h
92 08-12-2020 07:35:00 2.9 C 5.61 g/m*3 2.9 C 0 km/h
93 08-12-2020 07:40:00 2.9 C 5.61 g/m*3 2.9 C 0 km/h
94 08-12-2020 07:45:00 2.9 C 5.61 g/m*3 2.9 C 0 km/h
95 08-12-2020 07:50:00 2.9 C 5.61 g/m*3 2.9 C 0 km/h
96 08-12-2020 07:55:00 2.9 C 5.61 g/m*3 2.9 C 0 km/h
97 08-12-2020 08:00:00 2.8 C 5.57 g/m*3 2.8 C 0 km/h
98 08-12-2020 08:05:00 2.8 C 5.57 g/m*3 2.8 C 1.6 km/h
99 08-12-2020 08:10:00 2.8 C 5.57 g/m*3 2.8 C 1.6 km/h
100 08-12-2020 08:15:00 2.8 C 5.57 g/m*3 2.8 C 0 km/h
Sensor: Nr:Datum:Temp:Abs-Feuchte:Windchill:Wind:
Aussen-T/F 101 08-12-2020 08:20:00 2.8 C 5.51 g/m*3 2.8 C 0 km/h
102 08-12-2020 08:25:00 2.7 C 5.48 g/m*3 2.7 C 0 km/h
103 08-12-2020 08:30:00 2.7 C 5.48 g/m*3 2.7 C 1.6 km/h
104 08-12-2020 08:35:00 2.6 C 5.44 g/m*3 2.6 C 0 km/h
105 08-12-2020 08:40:00 2.5 C 5.4 g/m*3 2.5 C 0 km/h
106 08-12-2020 08:45:00 2.5 C 5.4 g/m*3 2.5 C 0 km/h
107 08-12-2020 08:50:00 2.5 C 5.4 g/m*3 2.5 C 0 km/h
108 08-12-2020 08:55:00 2.5 C 5.46 g/m*3 2.5 C 0 km/h
109 08-12-2020 09:00:00 2.6 C 5.5 g/m*3 2.6 C 0 km/h
110 08-12-2020 09:05:00 2.6 C 5.5 g/m*3 2.6 C 0 km/h
111 08-12-2020 09:10:00 2.6 C 5.5 g/m*3 2.6 C 0 km/h
112 08-12-2020 09:15:00 2.7 C 5.54 g/m*3 2.7 C 0 km/h
113 08-12-2020 09:20:00 2.7 C 5.54 g/m*3 2.7 C 0 km/h
114 08-12-2020 09:25:00 2.8 C 5.57 g/m*3 2.8 C 0 km/h
115 08-12-2020 09:30:00 2.8 C 5.57 g/m*3 2.8 C 0 km/h
116 08-12-2020 09:35:00 2.8 C 5.57 g/m*3 2.8 C 0 km/h
117 08-12-2020 09:40:00 2.8 C 5.57 g/m*3 2.8 C 0 km/h
118 08-12-2020 09:45:00 2.9 C 5.61 g/m*3 2.9 C 0 km/h
119 08-12-2020 09:50:00 2.9 C 5.61 g/m*3 2.9 C 0 km/h
120 08-12-2020 09:55:00 2.9 C 5.61 g/m*3 2.9 C 0 km/h
121 08-12-2020 10:00:00 3 C 5.65 g/m*3 3 C 0 km/h
122 08-12-2020 10:05:00 3.1 C 5.69 g/m*3 3.1 C 0 km/h
123 08-12-2020 10:10:00 3.1 C 5.69 g/m*3 3.1 C 0 km/h
124 08-12-2020 10:15:00 3.2 C 5.72 g/m*3 3.2 C 4.8 km/h
125 08-12-2020 10:20:00 3.3 C 5.7 g/m*3 1.11 C 8.1 km/h
Sensor: Nr:Datum:Temp:Abs-Feuchte:Windchill:Wind:
Aussen-T/F 126 08-12-2020 10:25:00 3.3 C 5.7 g/m*3 1.11 C 8.1 km/h
127 08-12-2020 10:30:00 3.4 C 5.74 g/m*3 3.4 C 0 km/h
128 08-12-2020 10:35:00 3.6 C 5.76 g/m*3 3.6 C 4.8 km/h
129 08-12-2020 10:40:00 3.6 C 5.69 g/m*3 1.98 C 6.4 km/h
130 08-12-2020 10:45:00 3.7 C 5.73 g/m*3 3.7 C 4.8 km/h
131 08-12-2020 10:50:00 3.8 C 5.77 g/m*3 3.8 C 4.8 km/h
132 08-12-2020 10:55:00 3.8 C 5.71 g/m*3 3.8 C 3.2 km/h
133 08-12-2020 11:00:00 3.9 C 5.75 g/m*3 3.9 C 3.2 km/h
134 08-12-2020 11:05:00 3.9 C 5.68 g/m*3 3.9 C 3.2 km/h
135 08-12-2020 11:10:00 4.1 C 5.76 g/m*3 4.1 C 4.8 km/h
136 08-12-2020 11:15:00 4.1 C 5.76 g/m*3 2.55 C 6.4 km/h
137 08-12-2020 11:20:00 4.2 C 5.8 g/m*3 4.2 C 3.2 km/h
138 08-12-2020 11:25:00 4.3 C 5.77 g/m*3 4.3 C 3.2 km/h
139 08-12-2020 11:30:00 4.4 C 5.88 g/m*3 4.4 C 3.2 km/h
140 08-12-2020 11:35:00 4.5 C 5.85 g/m*3 4.5 C 1.6 km/h
141 08-12-2020 11:40:00 4.6 C 5.89 g/m*3 4.6 C 3.2 km/h
142 08-12-2020 11:45:00 4.7 C 5.86 g/m*3 2.76 C 8.1 km/h
143 08-12-2020 11:50:00 4.8 C 5.9 g/m*3 4.8 C 4.8 km/h
144 08-12-2020 11:55:00 4.8 C 5.83 g/m*3 3.36 C 6.4 km/h
145 08-12-2020 12:00:00 4.8 C 5.83 g/m*3 4.8 C 3.2 km/h
146 08-12-2020 12:05:00 4.8 C 5.77 g/m*3 2.49 C 9.7 km/h
147 08-12-2020 12:10:00 4.8 C 5.7 g/m*3 2.87 C 8.1 km/h
148 08-12-2020 12:15:00 4.8 C 5.7 g/m*3 4.8 C 0 km/h
149 08-12-2020 12:20:00 4.9 C 5.81 g/m*3 4.9 C 1.6 km/h
150 08-12-2020 12:25:00 4.9 C 5.81 g/m*3 4.9 C 4.8 km/h
Sensor: Nr:Datum:Temp:Abs-Feuchte:Windchill:Wind:
Aussen-T/F 151 08-12-2020 12:30:00 5 C 5.84 g/m*3 5 C 1.6 km/h
152 08-12-2020 12:35:00 5 C 5.84 g/m*3 3.11 C 8.1 km/h
153 08-12-2020 12:40:00 5.1 C 5.81 g/m*3 5.1 C 4.8 km/h
154 08-12-2020 12:45:00 5.1 C 5.81 g/m*3 3.71 C 6.4 km/h
155 08-12-2020 12:50:00 5.1 C 5.81 g/m*3 5.1 C 1.6 km/h
156 08-12-2020 12:55:00 5.1 C 5.75 g/m*3 5.1 C 4.8 km/h
157 08-12-2020 13:00:00 5.2 C 5.85 g/m*3 5.2 C 3.2 km/h
158 08-12-2020 13:05:00 5.2 C 5.85 g/m*3 5.2 C 3.2 km/h
159 08-12-2020 13:10:00 5.3 C 5.89 g/m*3 5.3 C 1.6 km/h
160 08-12-2020 13:15:00 5.3 C 5.82 g/m*3 5.3 C 4.8 km/h
161 08-12-2020 13:20:00 5.3 C 5.82 g/m*3 5.3 C 4.8 km/h
162 08-12-2020 13:25:00 5.3 C 5.75 g/m*3 3.08 C 9.7 km/h
163 08-12-2020 13:30:00 5.3 C 5.75 g/m*3 3.08 C 9.7 km/h
164 08-12-2020 13:35:00 5.4 C 5.86 g/m*3 5.4 C 4.8 km/h
165 08-12-2020 13:40:00 5.4 C 5.79 g/m*3 5.4 C 4.8 km/h
166 08-12-2020 13:45:00 5.4 C 5.79 g/m*3 5.4 C 4.8 km/h
167 08-12-2020 13:50:00 5.6 C 5.87 g/m*3 5.6 C 4.8 km/h
168 08-12-2020 13:55:00 5.6 C 5.87 g/m*3 3.81 C 8.1 km/h
169 08-12-2020 14:00:00 5.6 C 5.87 g/m*3 4.29 C 6.4 km/h
170 08-12-2020 14:05:00 5.7 C 5.98 g/m*3 5.7 C 3.2 km/h
171 08-12-2020 14:10:00 5.7 C 5.91 g/m*3 5.7 C 4.8 km/h
172 08-12-2020 14:15:00 5.7 C 5.84 g/m*3 3.93 C 8.1 km/h
173 08-12-2020 14:20:00 5.7 C 5.91 g/m*3 3.93 C 8.1 km/h
174 08-12-2020 14:25:00 5.7 C 5.84 g/m*3 4.4 C 6.4 km/h
175 08-12-2020 14:30:00 5.7 C 5.84 g/m*3 5.7 C 3.2 km/h
Sensor: Nr:Datum:Temp:Abs-Feuchte:Windchill:Wind:
Aussen-T/F 176 08-12-2020 14:35:00 5.7 C 5.91 g/m*3 5.7 C 3.2 km/h
177 08-12-2020 14:40:00 5.8 C 5.95 g/m*3 5.8 C 4.8 km/h
178 08-12-2020 14:45:00 5.7 C 5.91 g/m*3 5.7 C 4.8 km/h
179 08-12-2020 14:50:00 5.8 C 5.95 g/m*3 5.8 C 3.2 km/h
180 08-12-2020 14:55:00 5.8 C 5.95 g/m*3 5.8 C 1.6 km/h
181 08-12-2020 15:00:00 5.8 C 5.95 g/m*3 5.8 C 3.2 km/h
182 08-12-2020 15:05:00 5.8 C 5.95 g/m*3 5.8 C 1.6 km/h
183 08-12-2020 15:10:00 5.8 C 5.95 g/m*3 5.8 C 4.8 km/h
184 08-12-2020 15:15:00 5.8 C 5.95 g/m*3 5.8 C 1.6 km/h
185 08-12-2020 15:20:00 5.8 C 6.02 g/m*3 5.8 C 0 km/h
186 08-12-2020 15:25:00 5.8 C 6.02 g/m*3 5.8 C 0 km/h
187 08-12-2020 15:30:00 5.8 C 6.09 g/m*3 5.8 C 0 km/h
188 08-12-2020 15:35:00 5.8 C 6.09 g/m*3 5.8 C 0 km/h
189 08-12-2020 15:40:00 5.8 C 6.16 g/m*3 5.8 C 0 km/h
190 08-12-2020 15:45:00 5.8 C 6.16 g/m*3 5.8 C 0 km/h
191 08-12-2020 15:50:00 5.7 C 6.12 g/m*3 5.7 C 0 km/h
192 08-12-2020 15:55:00 5.7 C 6.19 g/m*3 5.7 C 0 km/h
193 08-12-2020 16:00:00 5.6 C 6.15 g/m*3 5.6 C 0 km/h
194 08-12-2020 16:05:00 5.5 C 6.11 g/m*3 5.5 C 0 km/h
195 08-12-2020 16:10:00 5.4 C 6.07 g/m*3 5.4 C 3.2 km/h
196 08-12-2020 16:15:00 5.3 C 6.03 g/m*3 5.3 C 1.6 km/h
197 08-12-2020 16:20:00 5.2 C 6.06 g/m*3 5.2 C 0 km/h
198 08-12-2020 16:25:00 5.2 C 6.06 g/m*3 5.2 C 3.2 km/h
199 08-12-2020 16:30:00 5.1 C 6.02 g/m*3 5.1 C 0 km/h
200 08-12-2020 16:35:00 5.1 C 6.09 g/m*3 5.1 C 0 km/h
Sensor: Nr:Datum:Temp:Abs-Feuchte:Windchill:Wind:
Aussen-T/F 201 08-12-2020 16:40:00 5 C 6.05 g/m*3 5 C 0 km/h
202 08-12-2020 16:45:00 4.9 C 6.08 g/m*3 4.9 C 0 km/h
203 08-12-2020 16:50:00 4.9 C 6.08 g/m*3 4.9 C 0 km/h
204 08-12-2020 16:55:00 4.9 C 6.08 g/m*3 4.9 C 0 km/h
205 08-12-2020 17:00:00 4.8 C 6.04 g/m*3 4.8 C 4.8 km/h
206 08-12-2020 17:05:00 4.7 C 6 g/m*3 4.7 C 3.2 km/h
207 08-12-2020 17:10:00 4.7 C 6.06 g/m*3 4.7 C 1.6 km/h
208 08-12-2020 17:15:00 4.6 C 6.02 g/m*3 4.6 C 1.6 km/h
209 08-12-2020 17:20:00 4.5 C 5.98 g/m*3 4.5 C 1.6 km/h
210 08-12-2020 17:25:00 4.4 C 5.94 g/m*3 4.4 C 1.6 km/h
211 08-12-2020 17:30:00 4.4 C 5.94 g/m*3 4.4 C 1.6 km/h
212 08-12-2020 17:35:00 4.3 C 5.9 g/m*3 4.3 C 0 km/h
213 08-12-2020 17:40:00 4.3 C 5.97 g/m*3 4.3 C 0 km/h
214 08-12-2020 17:45:00 4.3 C 5.97 g/m*3 4.3 C 3.2 km/h
215 08-12-2020 17:50:00 4.2 C 5.93 g/m*3 4.2 C 0 km/h
216 08-12-2020 17:55:00 4.2 C 5.93 g/m*3 4.2 C 0 km/h
217 08-12-2020 18:00:00 4.2 C 5.93 g/m*3 4.2 C 0 km/h
218 08-12-2020 18:05:00 4.1 C 5.89 g/m*3 4.1 C 1.6 km/h
219 08-12-2020 18:10:00 3.9 C 5.81 g/m*3 3.9 C 0 km/h
220 08-12-2020 18:15:00 3.8 C 5.77 g/m*3 3.8 C 0 km/h
221 08-12-2020 18:20:00 3.7 C 5.73 g/m*3 3.7 C 0 km/h
222 08-12-2020 18:25:00 3.7 C 5.73 g/m*3 3.7 C 0 km/h
223 08-12-2020 18:30:00 3.6 C 5.69 g/m*3 3.6 C 1.6 km/h
224 08-12-2020 18:35:00 3.4 C 5.62 g/m*3 3.4 C 0 km/h
225 08-12-2020 18:40:00 3.4 C 5.68 g/m*3 3.4 C 1.6 km/h
Sensor: Nr:Datum:Temp:Abs-Feuchte:Windchill:Wind:
Aussen-T/F 226 08-12-2020 18:45:00 3.3 C 5.64 g/m*3 3.3 C 3.2 km/h
227 08-12-2020 18:50:00 3.2 C 5.6 g/m*3 3.2 C 3.2 km/h
228 08-12-2020 18:55:00 3.2 C 5.6 g/m*3 3.2 C 3.2 km/h
229 08-12-2020 19:00:00 3.2 C 5.6 g/m*3 3.2 C 3.2 km/h
230 08-12-2020 19:05:00 3.1 C 5.57 g/m*3 3.1 C 0 km/h
231 08-12-2020 19:10:00 3.1 C 5.57 g/m*3 3.1 C 0 km/h
232 08-12-2020 19:15:00 3 C 5.53 g/m*3 3 C 0 km/h
233 08-12-2020 19:20:00 2.9 C 5.49 g/m*3 2.9 C 0 km/h
234 08-12-2020 19:25:00 2.9 C 5.49 g/m*3 2.9 C 0 km/h
235 08-12-2020 19:30:00 2.8 C 5.46 g/m*3 2.8 C 0 km/h
236 08-12-2020 19:35:00 2.7 C 5.42 g/m*3 2.7 C 0 km/h
237 08-12-2020 19:40:00 2.6 C 5.38 g/m*3 2.6 C 0 km/h
238 08-12-2020 19:45:00 2.5 C 5.35 g/m*3 2.5 C 0 km/h
239 08-12-2020 19:50:00 2.4 C 5.31 g/m*3 2.4 C 0 km/h
240 08-12-2020 19:55:00 2.4 C 5.31 g/m*3 2.4 C 0 km/h
241 08-12-2020 20:00:00 2.3 C 5.33 g/m*3 2.3 C 0 km/h
242 08-12-2020 20:05:00 2.3 C 5.33 g/m*3 2.3 C 0 km/h
243 08-12-2020 20:10:00 2.3 C 5.33 g/m*3 2.3 C 0 km/h
244 08-12-2020 20:15:00 2.3 C 5.33 g/m*3 2.3 C 0 km/h
245 08-12-2020 20:20:00 2.3 C 5.33 g/m*3 2.3 C 0 km/h
246 08-12-2020 20:25:00 2.3 C 5.33 g/m*3 2.3 C 0 km/h
247 08-12-2020 20:30:00 2.3 C 5.33 g/m*3 2.3 C 0 km/h
248 08-12-2020 20:35:00 2.3 C 5.33 g/m*3 2.3 C 0 km/h
249 08-12-2020 20:40:00 2.3 C 5.33 g/m*3 2.3 C 0 km/h
250 08-12-2020 20:45:00 2.3 C 5.33 g/m*3 2.3 C 0 km/h
Sensor: Nr:Datum:Temp:Abs-Feuchte:Windchill:Wind:
Aussen-T/F 251 08-12-2020 20:50:00 2.3 C 5.33 g/m*3 2.3 C 0 km/h
252 08-12-2020 20:55:00 2.3 C 5.33 g/m*3 2.3 C 0 km/h
253 08-12-2020 21:00:00 2.3 C 5.39 g/m*3 2.3 C 0 km/h
254 08-12-2020 21:05:00 2.3 C 5.39 g/m*3 2.3 C 0 km/h
255 08-12-2020 21:10:00 2.2 C 5.35 g/m*3 2.2 C 0 km/h
256 08-12-2020 21:15:00 2.2 C 5.35 g/m*3 2.2 C 0 km/h
257 08-12-2020 21:20:00 2.1 C 5.26 g/m*3 2.1 C 0 km/h
258 08-12-2020 21:25:00 1.9 C 5.19 g/m*3 1.9 C 0 km/h
259 08-12-2020 21:30:00 1.7 C 5.12 g/m*3 1.7 C 0 km/h
260 08-12-2020 21:35:00 1.6 C 5.08 g/m*3 1.6 C 0 km/h
261 08-12-2020 21:40:00 1.4 C 5.01 g/m*3 1.4 C 0 km/h
262 08-12-2020 21:45:00 1.3 C 4.98 g/m*3 1.3 C 0 km/h
263 08-12-2020 21:50:00 1.3 C 4.98 g/m*3 1.3 C 0 km/h
264 08-12-2020 21:55:00 1.2 C 4.95 g/m*3 1.2 C 0 km/h
265 08-12-2020 22:00:00 1.2 C 5 g/m*3 1.2 C 0 km/h
266 08-12-2020 22:05:00 1.2 C 4.95 g/m*3 1.2 C 0 km/h
267 08-12-2020 22:10:00 1.1 C 4.96 g/m*3 1.1 C 0 km/h
268 08-12-2020 22:15:00 1.1 C 4.96 g/m*3 1.1 C 0 km/h
269 08-12-2020 22:20:00 1 C 4.93 g/m*3 1 C 0 km/h
270 08-12-2020 22:25:00 0.9 C 4.9 g/m*3 0.9 C 0 km/h
271 08-12-2020 22:30:00 0.9 C 4.9 g/m*3 0.9 C 0 km/h
272 08-12-2020 22:35:00 0.9 C 4.9 g/m*3 0.9 C 0 km/h
273 08-12-2020 22:40:00 0.9 C 4.9 g/m*3 0.9 C 0 km/h
274 08-12-2020 22:45:00 0.8 C 4.86 g/m*3 0.8 C 0 km/h
275 08-12-2020 22:50:00 0.7 C 4.83 g/m*3 0.7 C 0 km/h
Sensor: Nr:Datum:Temp:Abs-Feuchte:Windchill:Wind:
Aussen-T/F 276 08-12-2020 22:55:00 0.6 C 4.8 g/m*3 0.6 C 0 km/h
277 08-12-2020 23:00:00 0.6 C 4.8 g/m*3 0.6 C 0 km/h
278 08-12-2020 23:05:00 0.6 C 4.8 g/m*3 0.6 C 0 km/h
279 08-12-2020 23:10:00 0.6 C 4.8 g/m*3 0.6 C 0 km/h
280 08-12-2020 23:15:00 0.5 C 4.76 g/m*3 0.5 C 0 km/h
281 08-12-2020 23:20:00 0.6 C 4.8 g/m*3 0.6 C 0 km/h
282 08-12-2020 23:25:00 0.5 C 4.76 g/m*3 0.5 C 0 km/h
283 08-12-2020 23:30:00 0.5 C 4.76 g/m*3 0.5 C 0 km/h
284 08-12-2020 23:35:00 0.4 C 4.73 g/m*3 0.4 C 0 km/h
285 08-12-2020 23:40:00 0.4 C 4.73 g/m*3 0.4 C 0 km/h
286 08-12-2020 23:45:00 0.4 C 4.73 g/m*3 0.4 C 0 km/h
287 08-12-2020 23:50:00 0.3 C 4.7 g/m*3 0.3 C 0 km/h
288 08-12-2020 23:55:00 0.3 C 4.7 g/m*3 0.3 C 0 km/h

Legende:
   Min
   Max


Maximal/Minimal-Werte vom 08.12.2020 - 08.12.2020

Sensor Min Max Avg
Temp
(Aussen-T/F)
0.3 °C
08-12-2020  23:50:00
5.8 °C
08-12-2020  14:40:00
3.37 °C
Abs-Feuchte
(Aussen-T/F)
4.7 g/m*3
08-12-2020  23:50:00
6.19 g/m*3
08-12-2020  15:55:00
5.62 g/m*3
Windchill
(Aussen-T/F)
0.3 C
08-12-2020  23:50:00
5.8 C
08-12-2020  14:40:00
3.25 C

Die Daten stammen von einer Davis Vantage Pro 2 Wetter-Station und werden unter Linux mit der Software wview2wettercgi und aufbereitet. Alle Angaben erfolgen ohne Gewähr für ihre Vollständigkeit oder Richtigkeit.
Kontakt: Rainer Krienke krienke@uni-koblenz.de . Meine Webseiten an der Uni Koblenz oder privat.
Version: $Revision: 0.78 $